EDT,Max TemperatureF,Mean TemperatureF,Min TemperatureF,Max Dew PointF,MeanDew PointF,Min DewpointF,Max Humidity, Mean Humidity, Min Humidity, Max Sea Level PressureIn, Mean Sea Level PressureIn, Min Sea Level PressureIn, Max VisibilityMiles, Mean VisibilityMiles, Min VisibilityMiles, Max Wind SpeedMPH, Mean Wind SpeedMPH, Max Gust SpeedMPH,PrecipitationIn, CloudCover, Events, WindDirDegrees
2012-3-1,32,30,28,32,28,26,100,89,82,29.84,29.71,29.50,10,9,2,12,5,,0.00,8,Snow,40
2012-3-2,36,34,31,32,31,29,100,93,76,29.83,29.65,29.27,10,7,0,13,4,18,0.00,8,Snow,101
2012-3-3,32,26,21,32,25,17,100,91,81,29.72,29.40,29.16,10,3,1,15,11,26,0.00,8,Snow,317
2012-3-4,19,14,8,16,9,4,89,77,58,29.97,29.86,29.74,10,8,1,10,6,,0.00,4,Snow,4
2012-3-5,25,12,-2,18,7,-5,90,81,63,30.29,30.17,29.99,10,9,2,9,1,,0.00,3,Snow,176
2012-3-6,50,35,22,34,25,18,88,70,53,30.27,30.03,29.81,10,10,7,17,11,26,0.00,2,Snow,155
2012-3-7,56,53,50,44,36,33,67,54,46,29.83,29.77,29.68,10,10,7,21,16,32,0.00,5,Rain,196
2012-3-8,50,39,27,48,27,20,98,82,65,30.03,29.87,29.61,10,8,2,22,15,32,0.00,8,Rain-Snow,297
2012-3-9,32,27,22,27,16,8,86,66,54,30.51,30.29,29.97,10,9,2,30,20,39,0.00,7,Snow,304
2012-3-10,48,33,18,27,15,7,81,53,36,30.51,30.25,29.98,10,10,10,20,9,30,0.00,3,,166
2012-3-11,62,54,45,32,30,25,54,42,30,30.14,30.09,30.03,10,10,10,18,13,25,0.00,0,,203
2012-3-12,50,46,42,49,37,24,97,72,37,30.10,29.93,29.69,10,9,3,12,6,,0.00,5,Rain,129
2012-3-13,52,48,43,43,38,30,90,71,43,30.00,29.85,29.72,10,10,10,26,15,37,0.00,3,,238
2012-3-14,74,52,29,47,34,27,94,65,30,30.07,30.00,29.85,10,10,10,13,5,17,0.00,0,,128
2012-3-15,64,51,38,53,40,35,97,80,60,30.03,29.97,29.88,10,9,0,9,5,,0.00,2,Fog,320
2012-3-16,56,44,32,40,34,29,98,76,42,30.13,30.08,30.05,10,10,10,8,1,,0.00,0,,351
2012-3-17,78,65,52,54,50,44,90,65,32,30.06,30.04,29.99,10,10,7,20,8,29,0.00,0,,171
2012-3-18,77,66,54,58,52,47,81,63,45,30.05,30.02,29.97,10,10,10,13,7,17,0.00,0,,183
2012-3-19,80,65,50,59,53,48,89,72,42,30.03,30.01,29.97,10,10,10,14,5,21,0.00,2,,154
2012-3-20,80,68,55,57,54,46,86,62,35,30.05,30.02,29.99,10,10,10,17,7,24,0.00,0,,168
2012-3-21,83,66,49,54,51,44,81,51,34,30.12,30.08,30.05,10,10,5,17,8,25,0.00,0,,219
2012-3-22,66,56,45,55,50,44,98,84,65,30.23,30.16,30.12,10,9,3,14,6,20,0.00,5,Rain,73
2012-3-23,55,53,51,53,51,48,97,91,82,30.15,30.09,29.98,10,8,4,16,11,17,0.00,8,Rain,105
2012-3-24,56,49,42,44,39,36,84,69,50,29.95,29.92,29.90,10,10,7,17,11,21,0.00,8,Rain,88
2012-3-25,46,42,39,39,35,32,88,75,62,30.12,30.01,29.92,10,10,10,20,5,28,0.00,7,,299
2012-3-26,36,30,26,22,18,15,72,62,43,30.50,30.41,30.28,10,10,10,18,13,28,0.00,1,,8
2012-3-27,52,40,29,25,12,6,59,37,21,30.38,30.16,29.78,10,10,10,21,11,30,0.00,5,Rain,139
2012-3-28,59,48,38,46,37,32,84,72,47,29.90,29.67,29.54,10,10,10,23,15,32,0.00,8,Rain,265
2012-3-29,36,34,32,32,26,24,90,72,62,30.23,30.15,30.05,10,10,5,14,10,18,0.00,7,Snow,2
2012-3-30,35,34,32,32,26,22,95,74,62,30.14,30.02,29.93,10,9,2,18,10,25,0.00,6,Snow,112
2012-3-31,40,36,32,31,29,27,89,81,64,30.06,30.02,29.94,10,10,10,10,6,,0.00,7,,84